Overview Statistics Trail Chart Weather Telemetry Raw packets
 

This is the latest recevied weather packets stored in our database for station/object NL3D. If no packets are shown the sender has not sent any weather packets the latest 10 day(s).

<< 37 38 39 40 41 42 43 >>
Time Temp. Humidity Pressure Rain* Wind** Luminosity Snow
1777444883 0.56° C 94% 1019.3 hPa 0 mm - 0 W/m² -
1777444579 0.56° C 93% 1019.2 hPa 0 mm - 0 W/m² -
1777444277 1.11° C 93% 1019.1 hPa 0 mm - 0 W/m² -
1777443973 1.11° C 93% 1019 hPa 0 mm - 0 W/m² -
1777443669 1.11° C 93% 1019.1 hPa 0 mm - 0 W/m² -
1777443368 1.11° C 93% 1018.8 hPa 0 mm - 1 W/m² -
1777443066 1.11° C 92% 1018.9 hPa 0 mm - 1 W/m² -
1777442763 1.67° C 91% 1018.9 hPa 0 mm - 2 W/m² -
1777442458 1.67° C 92% 1019 hPa 0 mm - 2 W/m² -
1777442155 1.67° C 91% 1018.9 hPa 0 mm - 3 W/m² -
1777441850 2.22° C 91% 1019.1 hPa 0 mm - 4 W/m² -
1777441546 2.22° C 91% 1018.8 hPa 0 mm - 5 W/m² -
1777441242 2.22° C 91% 1019 hPa 0 mm - 7 W/m² -
1777440937 2.22° C 91% 1018.8 hPa 0 mm - 8 W/m² -
1777440633 2.78° C 91% 1019 hPa 0 mm - 10 W/m² -
1777440329 2.78° C 90% 1018.9 hPa 0 mm - 12 W/m² -
1777440026 2.78° C 90% 1018.8 hPa 0 mm - 15 W/m² -
1777439721 2.78° C 90% 1018.9 hPa 0 mm - 16 W/m² -
1777439417 2.78° C 89% 1018.8 hPa 0 mm - 19 W/m² -
1777439113 2.78° C 89% 1018.8 hPa 0 mm - 23 W/m² -
1777438810 3.33° C 89% 1018.8 hPa 0 mm - 25 W/m² -
1777438507 3.33° C 88% 1018.9 hPa 0 mm - 28 W/m² -
1777438203 3.33° C 88% 1018.8 hPa 0 mm - 26 W/m² -
1777437898 3.33° C 88% 1018.9 hPa 0 mm - 28 W/m² -
1777437595 3.33° C 88% 1018.5 hPa 0 mm - 30 W/m² -

* Rain latest hour (hover to see other rain measurements)
** Current wind speed in m/s (hover to see current wind gust speed)